Estación Meteorológica Peña el Pijo (Robertgarden) [ 07/07/20 11:47:29 CEST ]

Fecha Hora Presion(HPa) Temp (°C) Humedad % Rocio (°C) Viento ( m/s) Direccion Lluvia 1Hora(mm) Lluvia 24H(mm) LLuvia Total(mm)
2020-Mar-12 01:09:01 1014.300 - - - - N     39.88
2020-Mar-12 02:13:10 1014.000 - - - - N     39.88
2020-Mar-12 03:08:54 1013.600 - - - - N     39.88
2020-Mar-12 04:09:17 1012.900 - - - - N     39.88
2020-Mar-12 05:09:07 1012.400 - - - - N     39.88
2020-Mar-12 06:09:22 1012.300 - - - - N     39.88
2020-Mar-12 07:09:11 1012.100 - - - - N     39.88
2020-Mar-12 08:09:15 1012.300 - - - - N     39.88
2020-Mar-12 09:09:08 1012.400 - - - - N     39.88
2020-Mar-12 10:08:53 1012.200 - - - - N     39.88
2020-Mar-12 11:09:02 1011.800 - - - - N     39.88
2020-Mar-12 12:09:07 1011.600 - - - - N     39.88
2020-Mar-12 13:09:03 1011.200 - - - - N     39.88
2020-Mar-12 14:09:28 1010.100 - - - - N     39.88
2020-Mar-12 15:09:30 1009.000 - - - - N     39.88
2020-Mar-12 16:09:12 1008.300 - - - - N     39.88
2020-Mar-12 17:09:23 1008.300 - - - - N     39.88
2020-Mar-12 18:08:53 1008.300 - - - - N     39.88
2020-Mar-12 19:09:07 1008.600 - - - - N     39.88
2020-Mar-12 20:09:42 1009.100 - - - - N     39.88
2020-Mar-12 21:09:04 1009.700 - - - - N     39.88
2020-Mar-12 22:08:39 1009.900 - - - - N     39.88
2020-Mar-12 23:09:35 1010.000 - - - - N     39.88

Temperatura Máxima:    Temperatura Mínima:
Presión Máxima:1014.300 Hpa    Presión Mínima:1008.300 Hpa


Volver